CDT,Max TemperatureF,Mean TemperatureF,Min TemperatureF,Max Dew PointF,MeanDew PointF,Min DewpointF,Max Humidity, Mean Humidity, Min Humidity, Max Sea Level PressureIn, Mean Sea Level PressureIn, Min Sea Level PressureIn, Max VisibilityMiles, Mean VisibilityMiles, Min VisibilityMiles, Max Wind SpeedMPH, Mean Wind SpeedMPH, Max Gust SpeedMPH,PrecipitationIn, CloudCover, Events, WindDirDegrees
2013-3-1,37,34,32,30,27,23,93,75,56,30.07,30.04,30.02,10,9,2,10,5,,0.00,8,Snow,297
2013-3-2,33,32,30,30,28,23,93,82,69,30.14,30.08,30.02,10,8,3,14,8,18,0.00,8,Rain-Snow,317
2013-3-3,41,34,28,23,17,5,80,55,23,30.16,30.12,30.09,10,10,7,14,7,21,0.00,3,Snow,321
2013-3-4,55,42,28,32,20,14,80,44,21,30.15,30.04,29.90,10,10,10,15,4,23,0.00,2,,140
2013-3-5,55,44,33,54,40,19,94,74,44,30.04,29.90,29.70,10,9,2,25,11,39,0.58,7,Rain-Snow-Thunderstorm,237
2013-3-6,42,36,30,27,23,18,75,60,49,30.28,30.18,30.05,10,10,10,21,12,28,0.00,6,,326
2013-3-7,46,37,28,28,26,23,80,67,46,30.35,30.30,30.27,10,10,10,12,5,16,0.00,2,,6
2013-3-8,60,44,28,32,22,3,87,56,10,30.38,30.30,30.23,10,9,5,10,3,,0.00,0,,7
2013-3-9,62,48,33,32,25,19,87,40,22,30.25,30.18,30.08,10,10,10,14,5,21,0.00,0,,142
2013-3-10,71,62,53,43,30,25,45,30,20,30.11,30.00,29.87,10,10,10,21,10,30,0.00,1,,151
2013-3-11,64,52,37,52,40,27,93,72,42,29.99,29.88,29.79,10,8,2,22,11,31,0.70,7,Rain,234
2013-3-12,53,42,32,32,28,23,87,60,30,30.17,30.08,29.98,10,10,10,15,7,20,0.03,2,,313
2013-3-13,46,39,32,30,22,10,93,53,23,30.38,30.26,30.15,10,10,7,20,6,25,0.00,1,,317
2013-3-14,51,38,26,28,16,5,74,45,16,30.44,30.35,30.24,10,10,10,8,3,,0.00,2,,360
2013-3-15,73,54,35,36,30,19,70,38,23,30.23,30.07,29.96,10,10,10,20,7,26,0.00,0,,208
2013-3-16,73,62,51,46,38,32,82,42,23,29.97,29.93,29.87,10,10,10,20,10,29,0.00,0,,220
2013-3-17,69,60,50,48,43,37,82,54,31,29.99,29.91,29.85,10,10,10,16,7,23,0.00,1,,194
2013-3-18,62,56,50,57,51,43,88,77,63,29.96,29.82,29.75,10,9,2,26,12,39,0.71,7,Rain-Thunderstorm,199
2013-3-19,59,46,33,41,28,14,93,54,19,30.16,30.10,29.97,10,9,0,16,7,18,0.00,0,Fog,357
2013-3-20,55,45,35,30,21,10,81,45,19,30.17,30.09,29.99,10,10,10,20,4,28,0.00,3,,314
2013-3-21,44,34,24,27,13,3,75,43,18,30.10,30.02,29.95,10,10,10,13,6,21,0.00,0,,347
2013-3-22,46,42,37,36,26,18,71,52,39,30.04,29.99,29.95,10,10,10,10,2,,0.00,7,Rain,129
2013-3-23,51,46,42,46,43,32,93,84,57,29.97,29.88,29.69,10,7,2,16,4,23,0.58,8,Rain-Thunderstorm,120
2013-3-24,60,48,37,50,40,21,88,70,47,29.79,29.62,29.47,10,9,2,25,12,38,0.29,7,Rain-Thunderstorm,214
2013-3-25,37,34,32,25,21,19,75,58,52,30.14,29.98,29.80,10,10,10,22,14,29,0.00,8,Snow,281
2013-3-26,39,36,32,28,25,23,81,69,52,30.35,30.24,30.13,10,10,4,18,8,24,0.00,8,Snow,309
2013-3-27,51,40,28,32,25,19,93,61,28,30.40,30.34,30.29,10,10,10,10,2,22,0.00,1,,326
2013-3-28,60,46,32,36,29,21,93,64,23,30.38,30.32,30.27,10,10,10,9,1,9,0.00,1,,335
2013-3-29,62,48,33,39,31,25,93,55,24,30.31,30.25,30.17,10,10,7,8,2,,0.00,5,,114
2013-3-30,64,53,42,52,44,32,94,71,37,30.19,30.09,29.97,10,8,2,9,2,16,0.35,5,Rain,188
2013-3-31,60,58,55,54,52,52,94,86,77,29.96,29.93,29.88,10,7,3,12,7,17,0.25,8,Rain,223